Regional Weather Roundup
Issued by NWS

Home | Current Version | Previous Version | Graphics & Text | Print | Product List | Glossary On
Versions: 1 2 3 4 5 6 7 8 9 10 11 12 13 14 15 16 17 18 19 20 21 22 23 24 25 26 27 28 29 30 31 32 33 34 35 36 37 38 39 40 41 42 43 44 45 46 47 48 49 50
000
ASUS45 KSLC 031910
RWRUT

UTAH REGIONAL WEATHER ROUNDUP
NATIONAL WEATHER SERVICE SALT LAKE CITY UT
100 PM MDT MON AUG 03 2015

UTZ001>011-023>025-032000-

NORTHERN UTAH

CITY           SKY/WX    TMP DP  RH WIND       PRES   REMARKS
BRIGHAM CITY   CLOUDY    63  58  84 CALM      30.14F
HILL AFB       LGT RAIN  61  61 100 VRB3      30.14S FOG
LOGAN          LGT RAIN  62  59  90 NW6       30.13F
OGDEN          RAIN      61  60  97 NW5       30.12S FOG
PROVO AIRPORT  PTSUNNY   63  57  82 E8        30.16R
SALT LAKE CITY LGT RAIN  64  59  83 W6        30.14R
VERNAL         CLOUDY    71  56  58 S7        30.09F
WENDOVER       CLOUDY    72  55  56 NE8       30.12R
HEBER CITY     LGT RAIN  63  55  77 CALM      30.15S
WEST JORDAN    CLOUDY    63  59  88 NE3       30.16R

$$

UTZ012>022-026-027-032000-

SOUTHERN/CENTRAL UTAH

CITY           SKY/WX    TMP DP  RH WIND       PRES   REMARKS
BLANDING       SUNNY     74  57  56 S8        30.29S
BRYCE CANYON   PTSUNNY   71  49  45 VRB3      30.30S
CEDAR CITY     SUNNY     84  41  21 VRB3      30.14F
DELTA          MOSUNNY   72  55  54 NE6       30.14S
HANKSVILLE     SUNNY     79  54  41 SE5       30.10F
MILFORD        SUNNY     82  47  29 SE6       30.10F
MOAB/CYNLANDS  MOSUNNY   81  54  39 W12       30.06F
PRICE          PTSUNNY   68  49  50 W13G21    30.16S
ST GEORGE      CLOUDY    91  50  24 CALM      29.97F
KANAB          PTSUNNY   88  45  22 SW9G17    30.15F

$$

REGIONAL REPORTS     COLORADO/ARIZONA

CITY           SKY/WX    TMP DP  RH WIND       PRES   REMARKS
CRAIG, CO      PTSUNNY   74  51  44 E9        30.16F
GRAND JUNCTION PTSUNNY   80  53  39 CALM      30.09F
RIFLE          PTSUNNY   74  54  49 CALM      30.13F
MONTROSE       PTSUNNY   80  53  39 SE6       30.18F
CORTEZ         SUNNY     80  55  42 SW10      30.21F
PAGE, AZ       SUNNY     83  58  42 NE8       30.08F
GRAND CANYON   MOSUNNY   82  40  22 W8G18     30.27S
KINGMAN        MOSUNNY   97  44  16 SW16G37   30.01F HX  93
FLAGSTAFF      MOSUNNY   78  43  28 SW12G20   30.32R

$$

REGIONAL REPORTS    NEVADA/IDAHO/WYOMING

CITY           SKY/WX    TMP DP  RH WIND       PRES   REMARKS
LAS VEGAS, NV  MOSUNNY  102  37  10 SE8G17    29.84F HX  96
ELY            PTSUNNY   82  39  21 SW6       30.14F
ELKO           MOSUNNY   84  44  24 S9        30.07F
POCATELLO, ID  PTSUNNY   75  52  44 SW13      30.04F
BURLEY         CLOUDY    78  48  34 VRB5      30.02R
EVANSTON, WY   LGT RAIN  60  55  83 NW8       30.18F
ROCK SPRINGS   CLOUDY    66  53  63 S8        30.16F
KEMMERER       LGT RAIN  55  52  88 NE8       30.20S

$$



USA.gov is the U.S. government's official web portal to all federal, state and local government web resources and services.